FENGYUN 2G (40367 NORAD) Tracking and Keplerian Element Data

This shows tracking and keplerian element data for the satellite.

Feedback or suggestion? Click here.




ElementValue
Catalog40367
NameFENGYUN 2G
Epoch Orbit1618
Epoch Day146.55257781
Epoch Year2019
RAAN101.368
Inclination1.1852
Eccentricity0.0001142
Argument of Perigee313.2878
Mean Anonmoly127.798
Mean Motion1.00276416
Decay Rate-3.04E-06
L11 40367U 14090A 19146.55257781 -.00000304 00000-0 00000+0 0 9992
L22 40367 1.1852 101.3680 0001142 313.2878 127.7980 1.00276416 16185

Live tracking and technical data element details for FENGYUN 2G (NORAD 40367). FENGYUN 2G can be tracked NOW for your location showing map with azimuth and elevation plus other details from your city location.

Track the satellite on the map from your city or location and see movement details for azimuth, elevation, latitude, longitude, range, height, and movement on the map or in text.







IsCatalogInMostPopularTable: catalog: 40367, numindb: 216
Update: records affected: 1



GetName: 40367 FENGYUN 2G

Hit Count: updated at: Sun, 26 May 2019 20:04:25 GMT